Temperature
6 7 7 7 7 8 8 8 8 8 7 7 7 7 8 6 5 5 5 5 4 4 4 4 4 5 5 5 5 6 6 6 6 6 6 6 6 6 6 6 6 6 7 7
7 6 6 6 6 6 7 7 7 7 6 6 6 7 7 6 5 5 5 4 4 3 3 3 3 4 4 4 5 5 5 5 5 5 5 5 6 6 6 6 6 6 6 6
6 5 5 5 5 5 6 6 6 6 6 5 6 7 7 6 5 4 4 3 3 3 2 2 3 3 3 4 4 4 5 5 5 5 5 5 5 5 5 5 5 5 5 6
4 4 4 4 4 4 5 5 5 5 5 6 6 7 7 6 5 4 4 3 2 2 2 2 2 2 3 3 3 4 4 4 4 4 4 4 4 4 4 5 5 5 5 5
3 3 3 3 3 3 4 4 4 4 4 5 5 5 7 5 5 4 4 3 2 1 1 1 1 2 2 3 3 3 3 4 3 3 3 3 3 3 4 4 4 4 4 4
2 2 2 3 3 3 3 3 3 4 4 4 4 5 7 5 4 4 3 2 1 1 0 1 1 1 1 2 2 2 3 3 3 3 3 3 3 3 3 3 3 4 4 4
2 2 2 2 2 3 3 3 4 5 5 5 4 4 5 3 2 2 2 1 0 -0 -0 -0 0 0 1 1 1 1 2 2 2 2 2 2 2 3 3 3 3 3 3 3
3 3 2 2 2 2 2 3 4 4 5 6 3 4 4 1 1 -0 -0 -0 -1 -1 -1 -1 -1 -0 0 1 1 1 1 1 2 2 2 2 2 2 2 2 3 3 3 3
2 2 1 1 1 1 2 2 2 2 2 3 4 4 3 1 0 -0 -1 -1 -1 -1 -1 -1 -1 -1 -0 -0 0 0 1 1 1 1 1 1 1 1 2 2 2 2 2 2
1 1 1 1 1 1 1 1 1 2 3 4 4 4 4 1 1 0 -1 -1 -2 -2 -2 -2 -1 -1 -1 -1 -0 -0 0 0 0 0 0 1 1 1 1 1 1 1 2 2
-0 -0 0 0 -0 0 -0 -0 0 1 1 3 3 4 2 1 0 -0 -1 -2 -2 -2 -2 -2 -2 -1 -1 -1 -1 -1 -1 -1 -0 -0 -0 -0 -0 0 0 0 1 1 1 1
-1 -0 -0 0 -1 -1 -1 -0 -0 1 0 1 2 3 -0 -1 -1 -2 -2 -3 -3 -3 -3 -3 -3 -2 -2 -2 -2 -2 -2 -1 -1 -1 -1 -1 -1 -1 -1 -0 -0 -0 0 0
-2 -1 -0 0 -0 -1 -2 -2 -2 -2 -1 0 1 2 -1 -2 -2 -3 -3 -3 -3 -3 -3 -3 -3 -3 -3 -3 -2 -2 -2 -2 -2 -2 -2 -2 -2 -1 -1 -1 -1 -1 -0 -0
-1 -2 -1 1 1 -1 -2 -2 -3 -2 -1 -0 0 1 0 -1 -2 -2 -3 -4 -4 -4 -4 -4 -4 -3 -3 -3 -3 -3 -3 -3 -3 -3 -3 -2 -2 -2 -2 -2 -2 -1 -1 -1
-2 -2 -2 -2 -2 -2 -2 -2 -3 -3 -1 -1 -0 -1 -1 -1 -2 -3 -4 -4 -4 -4 -4 -4 -4 -4 -4 -4 -4 -3 -3 -3 -3 -3 -3 -3 -3 -3 -2 -2 -2 -2 -2 -2
-3 -3 -3 -3 -3 -3 -3 -3 -3 -3 -2 -2 -2 -2 -2 -3 -4 -4 -4 -5 -5 -5 -5 -5 -5 -5 -4 -4 -4 -4 -4 -4 -4 -4 -4 -4 -3 -3 -3 -3 -3 -3 -3 -2
-4 -4 -3 -2 -4 -3 -2 -3 -3 -3 -4 -3 -2 -2 -3 -4 -4 -5 -5 -6 -6 -6 -6 -6 -5 -5 -5 -5 -4 -4 -4 -4 -4 -4 -4 -4 -4 -4 -4 -4 -4 -3 -3 -3
-5 -4 -3 -3 -3 -3 -2 -5 -5 -4 -5 -5 -5 -4 -5 -5 -6 -7 -6 -7 -7 -7 -6 -6 -6 -6 -5 -5 -5 -5 -5 -5 -5 -5 -5 -4 -4 -4 -4 -4 -4 -4 -4 -4
-5 -4 -3 -3 -2 -2 -3 -5 -6 -5 -5 -6 -6 -6 -6 -7 -7 -6 -7 -7 -7 -7 -7 -7 -6 -6 -6 -5 -5 -5 -5 -5 -5 -5 -5 -5 -5 -5 -5 -5 -5 -5 -5 -5
-6 -5 -4 -4 -3 -2 -2 -5 -7 -6 -4 -6 -7 -7 -7 -7 -4 -5 -7 -8 -7 -7 -7 -7 -7 -6 -6 -6 -6 -6 -5 -6 -6 -6 -6 -5 -5 -5 -5 -5 -6 -6 -5 -5
-6 -5 -5 -4 -3 -3 -5 -7 -7 -4 -4 -6 -7 -8 -8 -8 -7 -8 -8 -8 -8 -8 -8 -7 -7 -7 -7 -7 -6 -6 -6 -6 -6 -6 -6 -6 -6 -6 -6 -6 -6 -6 -6 -6
-5 -5 -5 -5 -4 -3 -7 -7 -6 -5 -7 -7 -8 -8 -9 -9 -9 -9 -9 -9 -8 -8 -8 -8 -8 -7 -7 -7 -7 -7 -6 -6 -7 -7 -7 -7 -7 -7 -7 -7 -7 -7 -7 -7
-7 -6 -5 -5 -4 -7 -8 -8 -8 -8 -8 -8 -8 -9 -9 -9 -9 -9 -9 -9 -9 -9 -9 -8 -8 -8 -8 -8 -8 -7 -7 -7 -7 -7 -7 -7 -7 -8 -7 -7 -7 -8 -8 -8
-8 -10 -8 -7 -7 -8 -9 -9 -9 -9 -9 -9 -9 -9 -9 -9 -9 -9 -9 -9 -9 -9 -9 -9 -9 -9 -8 -8 -8 -8 -8 -8 -8 -8 -8 -8 -8 -8 -8 -8 -8 -8 -8 -8
-8 -10 -9 -8 -8 -9 -9 -9 -9 -9 -9 -9 -9 -10 -10 -10 -10 -10 -10 -10 -10 -10 -10 -10 -10 -9 -9 -9 -9 -9 -9 -9 -9 -9 -9 -9 -9 -9 -9 -9 -9 -9 -9 -9
-9 -10 -8 -7 -8 -9 -8 -9 -9 -9 -10 -10 -10 -10 -10 -10 -10 -10 -10 -11 -11 -10 -10 -10 -10 -10 -10 -10 -10 -10 -10 -10 -10 -10 -10 -10 -10 -10 -10 -10 -10 -10 -10 -10
Wind_Speed
1 3 6 8 10 11 10 10 12 11 5 7 12 14 12 8 7 8 7 7 7 6 4 3 3 3 4 5 6 6 6 6 6 5 5 4 3 3 3 4 5 5 5 5
2 5 7 6 6 8 10 11 13 9 5 7 10 13 12 9 9 9 9 8 7 6 4 3 3 4 4 5 6 6 7 7 6 5 5 4 4 3 3 4 4 5 5 5
5 3 4 4 5 8 11 12 11 9 7 6 8 12 12 9 8 7 7 7 7 6 6 5 4 4 4 5 6 6 7 7 7 6 5 5 4 3 3 3 3 4 5 5
3 4 4 4 6 7 9 8 10 9 8 7 7 10 11 9 8 7 7 6 6 6 5 5 4 4 4 4 4 5 6 7 7 7 7 8 6 5 4 4 4 4 4 5
2 4 5 6 6 7 7 7 7 8 9 9 9 9 9 5 8 8 7 6 6 5 4 4 4 4 4 4 4 5 6 7 7 7 7 7 6 5 4 4 5 5 4 4
4 4 4 4 5 5 4 4 5 6 7 10 11 11 9 5 7 7 6 5 4 4 4 4 4 3 3 4 4 5 6 7 7 7 7 7 7 6 6 5 5 4 3 3
3 3 3 3 4 3 3 3 3 4 7 9 5 8 7 3 3 4 4 3 3 3 3 3 3 3 3 4 5 6 7 7 7 7 7 6 6 6 7 6 5 5 4 4
3 3 2 3 3 4 4 4 5 5 6 6 6 9 4 1 2 2 2 2 2 2 3 3 3 4 4 4 5 6 6 7 7 7 7 6 6 5 5 5 5 5 4 4
2 3 3 4 4 3 2 3 3 4 5 6 6 6 5 1 2 2 2 2 2 3 3 2 2 3 4 4 5 6 7 6 7 7 6 6 6 6 5 5 5 4 4 4
2 5 5 4 2 1 2 2 2 3 4 7 7 7 5 4 3 2 1 2 2 3 3 2 2 2 2 3 3 4 5 6 6 6 6 5 5 5 4 4 5 5 5 4
2 3 4 2 2 4 2 2 2 3 4 5 6 4 1 4 3 3 3 3 3 3 3 3 3 2 2 1 2 3 4 4 5 5 5 5 4 4 4 4 4 4 4 5
1 2 4 5 3 3 3 4 4 4 5 5 6 4 2 1 2 2 3 3 3 3 3 3 3 2 2 1 1 2 3 3 4 4 4 4 4 4 4 4 4 4 5 5
1 2 3 3 2 1 2 3 3 3 3 5 7 5 1 3 3 3 4 4 4 3 3 3 3 2 2 2 2 2 2 2 3 3 4 4 4 5 5 5 5 5 4 4
2 3 6 8 7 4 5 6 6 5 6 8 10 11 9 7 7 7 6 5 4 4 3 3 3 3 2 2 2 2 2 2 2 3 4 4 4 5 5 4 4 5 5 5
2 4 6 9 9 7 9 10 9 10 11 11 10 11 11 9 8 7 6 5 4 4 4 4 4 4 3 2 2 2 2 2 2 3 4 4 4 4 4 4 4 4 5 5
1 3 3 6 6 7 9 11 11 12 11 12 13 13 9 7 5 6 6 5 5 5 5 5 5 4 4 4 3 3 3 3 2 3 4 3 3 3 4 4 4 4 5 5
3 3 3 5 3 4 7 7 8 6 6 7 9 8 6 6 6 6 6 6 6 6 6 5 5 4 4 4 4 4 4 3 3 3 3 3 3 3 3 3 3 4 5 5
4 4 3 4 3 6 2 1 3 5 4 5 6 7 7 7 8 6 5 5 6 6 6 5 5 5 5 5 4 4 4 3 3 3 3 3 3 3 3 3 4 4 4 4
5 5 3 3 5 7 4 2 2 4 5 4 6 7 6 6 4 3 3 4 5 6 6 6 6 6 5 5 4 4 3 2 2 3 3 3 3 3 4 4 4 4 4 4
1 3 4 4 5 6 3 0 1 3 5 2 3 4 4 4 4 4 5 6 7 6 5 5 6 5 5 4 3 3 2 2 3 3 3 3 3 3 4 4 4 3 3 4
2 3 5 7 7 6 2 0 2 4 4 2 3 4 3 4 6 6 7 7 7 6 6 6 5 4 4 4 2 3 3 3 3 3 3 2 3 3 3 3 3 3 3 3
5 4 5 5 6 6 1 2 4 4 3 3 4 5 5 6 7 7 7 7 7 7 7 6 5 5 4 3 2 3 4 4 3 2 2 2 2 2 2 2 2 3 3 3
5 5 4 6 5 2 3 3 3 3 5 6 6 5 6 7 7 7 7 7 7 7 6 5 5 5 4 3 3 4 4 3 2 1 1 1 1 1 2 2 3 3 3 3
3 2 4 5 7 6 5 5 5 5 6 6 6 6 5 6 7 7 6 6 6 5 5 4 4 5 5 4 3 3 3 2 2 1 1 1 1 1 1 1 2 3 3 3
4 3 4 7 7 6 6 7 7 6 6 6 6 5 5 6 6 6 6 5 5 5 4 4 4 4 5 5 4 3 3 2 1 1 1 1 1 1 1 1 2 3 3 4
4 5 5 6 5 5 6 6 6 6 7 7 6 6 5 5 6 6 5 4 4 4 4 4 4 5 5 4 4 3 2 1 1 1 1 1 1 1 1 1 1 2 3 3
Wind_Direction
247 222 238 241 240 252 257 254 255 259 257 246 246 251 253 246 240 244 243 240 239 239 244 233 215 200 193 187 185 179 172 171 167 167 163 153 158 150 141 133 129 130 127 132
226 245 266 271 255 250 250 253 260 264 258 252 258 260 258 246 242 245 246 245 244 244 239 226 209 191 191 190 188 183 179 174 176 177 173 169 165 160 149 133 125 128 132 132
243 299 301 275 265 254 252 253 259 264 271 248 267 262 247 243 243 251 252 250 249 243 234 223 211 197 189 190 189 187 181 178 177 171 159 146 144 148 154 155 146 141 135 134
277 298 299 286 279 268 261 267 265 259 253 251 243 264 249 243 242 249 256 254 253 248 241 231 222 213 202 200 190 186 179 178 176 173 167 163 167 169 177 173 158 144 143 138
288 304 299 283 282 276 268 278 264 255 251 255 243 249 259 239 249 254 258 258 257 253 241 232 226 221 214 204 192 185 178 176 175 173 171 173 175 172 164 163 155 153 150 149
290 305 314 290 294 279 274 273 263 248 243 246 238 234 257 235 249 258 258 265 271 262 249 237 230 221 210 196 189 185 179 177 175 172 174 178 177 171 162 163 164 163 161 157
311 306 317 305 297 285 284 263 254 237 230 242 225 235 250 276 272 260 263 278 288 273 257 245 228 218 212 199 191 188 181 179 177 175 178 184 184 178 173 172 174 173 172 173
308 303 342 331 293 271 262 250 240 251 251 258 229 234 239 354 327 318 306 307 325 312 287 263 239 217 210 205 199 193 187 183 181 181 182 183 185 188 184 179 176 181 185 183
296 293 323 317 314 280 260 249 274 264 272 266 246 245 248 265 336 343 327 325 326 330 318 284 260 228 217 211 206 200 190 188 188 188 185 185 183 186 185 182 183 186 186 180
276 284 301 308 283 338 285 251 243 239 248 253 252 246 250 257 282 298 309 311 316 339 337 321 296 277 238 227 218 204 192 190 191 191 190 190 188 185 183 180 187 187 185 179
266 258 294 289 249 267 251 226 242 247 264 262 260 248 261 253 255 263 275 289 307 324 328 327 325 306 275 236 212 204 195 191 190 188 189 190 191 189 190 188 194 195 191 187
276 254 272 274 276 264 245 241 225 247 254 255 269 267 65 309 298 281 285 295 307 320 327 333 333 332 332 287 234 219 207 197 196 192 188 192 194 196 198 200 202 200 195 192
196 220 279 280 221 198 244 240 229 243 254 247 253 265 46 352 328 310 298 301 308 318 331 340 344 342 324 301 277 252 233 213 201 192 193 197 200 203 205 206 204 203 200 196
234 227 241 265 288 275 261 253 235 229 245 257 253 271 285 300 305 308 312 319 316 319 329 333 332 329 317 301 288 278 259 229 210 200 203 208 211 211 210 210 209 207 205 204
210 244 248 265 276 269 263 256 239 233 243 254 264 264 279 291 296 301 306 313 313 314 320 322 320 322 321 314 298 287 280 269 230 215 216 221 221 213 207 208 211 211 211 211
235 245 264 274 266 265 266 260 247 244 247 254 264 269 287 289 295 294 298 304 305 311 313 313 315 314 311 304 294 285 280 277 251 229 231 230 221 215 209 210 212 208 209 209
210 210 245 269 287 281 264 247 231 231 234 240 255 273 299 296 294 294 298 311 313 316 317 311 306 302 300 295 288 284 283 276 253 242 241 234 224 218 218 214 214 213 211 208
200 207 234 270 273 248 282 60 225 228 258 258 271 284 293 296 298 298 304 313 317 318 317 313 309 305 304 300 294 284 275 258 246 246 244 238 223 222 222 218 221 223 218 216
216 206 222 236 256 270 270 241 220 230 265 277 270 286 308 319 303 275 324 327 314 313 310 308 307 302 302 300 296 284 271 258 247 250 252 243 229 225 223 223 226 227 221 223
171 210 223 229 249 257 280 38 251 238 255 265 268 281 301 322 293 302 339 327 318 316 314 311 310 305 300 302 294 270 264 259 259 264 261 254 236 225 226 228 227 231 223 224
181 209 220 235 247 263 303 295 193 233 281 304 263 268 273 272 281 303 312 313 315 315 313 310 308 303 302 305 282 260 260 260 271 273 263 248 240 233 229 226 223 220 219 219
202 206 215 219 233 252 130 154 212 268 307 285 277 271 270 277 288 294 299 304 309 311 312 312 310 308 311 305 275 265 269 279 281 267 257 248 243 241 231 216 216 212 205 210
218 224 226 217 237 297 195 222 246 283 281 284 285 279 272 276 283 287 291 298 301 303 306 309 308 310 314 309 286 276 292 299 281 265 267 264 258 247 231 218 212 211 209 210
236 247 238 251 260 268 255 257 271 272 272 280 285 284 274 270 278 283 286 292 296 298 301 307 309 309 313 316 304 291 299 297 273 260 268 265 252 257 247 235 222 219 217 216
248 206 237 255 273 286 261 262 272 275 277 283 289 284 275 271 278 281 284 288 291 296 302 305 300 301 306 312 310 308 303 287 256 254 263 263 251 241 254 253 250 242 239 235
221 216 231 256 263 260 279 285 282 278 279 281 285 288 286 275 276 283 283 284 289 294 300 303 304 301 304 309 308 310 302 272 243 250 255 252 246 239 245 256 282 295 275 282
Height
1492 1492 1488 1488 1490 1488 1486 1484 1482 1483 1489 1491 1487 1485 1486 1490 1491 1490 1489 1490 1490 1490 1490 1490 1491 1491 1493 1494 1495 1496 1498 1500 1503 1505 1507 1509 1512 1514 1516 1519 1521 1522 1524 1526
1491 1490 1492 1493 1492 1491 1488 1486 1484 1485 1490 1490 1486 1483 1483 1485 1487 1487 1487 1486 1487 1487 1487 1487 1488 1488 1489 1491 1492 1493 1494 1497 1499 1502 1504 1507 1508 1510 1513 1516 1517 1520 1522 1524
1490 1494 1495 1493 1491 1490 1488 1486 1485 1487 1488 1489 1487 1477 1478 1480 1483 1484 1484 1484 1484 1484 1484 1484 1484 1485 1486 1487 1488 1490 1491 1493 1496 1498 1501 1503 1505 1508 1510 1512 1514 1517 1519 1522
1493 1496 1495 1493 1492 1490 1485 1488 1488 1489 1486 1481 1483 1470 1468 1474 1477 1479 1480 1481 1481 1481 1482 1482 1482 1482 1483 1484 1486 1487 1489 1491 1493 1495 1497 1499 1501 1503 1506 1509 1511 1514 1517 1519
1495 1496 1494 1493 1493 1492 1489 1490 1489 1487 1485 1482 1481 1478 1462 1472 1473 1474 1477 1478 1478 1478 1479 1478 1478 1479 1480 1482 1483 1485 1486 1488 1490 1492 1494 1496 1498 1501 1504 1506 1508 1512 1514 1517
1498 1498 1497 1495 1494 1493 1492 1490 1488 1486 1482 1477 1475 1473 1460 1469 1471 1472 1474 1476 1476 1476 1476 1476 1476 1477 1478 1479 1480 1482 1483 1485 1486 1488 1490 1493 1496 1498 1501 1503 1505 1508 1511 1513
1496 1497 1497 1496 1493 1492 1492 1488 1481 1475 1471 1464 1475 1473 1466 1471 1474 1474 1474 1474 1474 1474 1473 1473 1473 1474 1475 1476 1477 1479 1480 1481 1483 1485 1487 1490 1493 1495 1497 1499 1502 1505 1507 1509
1494 1492 1496 1496 1495 1493 1491 1489 1482 1473 1464 1460 1474 1467 1467 1475 1476 1475 1475 1474 1474 1473 1472 1471 1471 1471 1472 1473 1474 1476 1476 1477 1479 1482 1485 1488 1490 1492 1494 1496 1498 1501 1503 1506
1495 1493 1497 1497 1496 1495 1491 1488 1491 1486 1483 1476 1463 1466 1469 1473 1474 1475 1474 1473 1473 1472 1471 1470 1470 1470 1470 1470 1471 1472 1473 1475 1477 1479 1482 1484 1486 1488 1490 1493 1495 1498 1500 1502
1500 1499 1497 1497 1496 1495 1495 1493 1491 1485 1476 1464 1460 1462 1461 1469 1472 1473 1473 1472 1472 1471 1471 1469 1469 1468 1468 1469 1469 1470 1471 1473 1475 1476 1479 1481 1483 1485 1487 1489 1491 1494 1496 1499
1502 1500 1497 1496 1495 1493 1495 1495 1491 1486 1484 1470 1460 1459 1468 1470 1471 1472 1473 1472 1471 1470 1469 1468 1467 1467 1467 1467 1467 1468 1469 1471 1472 1473 1475 1477 1479 1481 1483 1485 1487 1490 1492 1494
1502 1499 1495 1494 1496 1496 1495 1493 1492 1487 1484 1482 1469 1466 1472 1472 1472 1472 1472 1472 1471 1470 1469 1467 1466 1466 1465 1465 1465 1466 1467 1468 1469 1470 1472 1473 1475 1477 1479 1481 1483 1486 1488 1490
1502 1500 1493 1487 1494 1497 1496 1495 1495 1494 1489 1481 1472 1467 1473 1473 1473 1473 1472 1471 1470 1469 1468 1466 1466 1464 1463 1463 1463 1463 1464 1465 1466 1467 1469 1470 1472 1473 1475 1477 1480 1482 1484 1485
1500 1498 1494 1486 1482 1488 1491 1493 1494 1493 1484 1477 1474 1470 1470 1472 1472 1472 1471 1470 1469 1468 1467 1465 1464 1463 1462 1462 1461 1461 1462 1463 1463 1465 1466 1467 1468 1470 1471 1474 1475 1477 1479 1481
1499 1496 1495 1492 1491 1491 1489 1489 1490 1490 1482 1478 1472 1473 1471 1472 1473 1472 1471 1470 1469 1467 1466 1465 1463 1462 1461 1461 1460 1460 1460 1460 1461 1461 1462 1463 1465 1466 1468 1469 1471 1473 1474 1476
1499 1497 1496 1493 1490 1490 1488 1485 1485 1484 1482 1479 1476 1473 1473 1473 1473 1471 1470 1469 1468 1466 1464 1463 1462 1460 1459 1459 1458 1457 1457 1457 1458 1458 1459 1460 1461 1463 1464 1465 1467 1468 1470 1471
1497 1498 1493 1484 1490 1488 1480 1480 1481 1480 1480 1479 1473 1472 1473 1472 1471 1470 1469 1468 1467 1465 1464 1462 1461 1460 1458 1457 1456 1455 1455 1455 1455 1456 1456 1457 1458 1459 1460 1461 1462 1464 1465 1466
1496 1495 1492 1486 1488 1483 1475 1481 1480 1479 1479 1479 1477 1474 1473 1472 1470 1469 1468 1467 1465 1463 1462 1460 1459 1457 1456 1455 1454 1453 1453 1452 1452 1452 1453 1453 1454 1455 1456 1457 1458 1459 1461 1462
1494 1493 1489 1486 1479 1472 1475 1479 1480 1479 1476 1477 1475 1474 1473 1471 1468 1466 1466 1465 1464 1462 1460 1459 1457 1455 1454 1452 1451 1451 1450 1449 1449 1449 1449 1449 1450 1451 1452 1453 1454 1455 1456 1457
1494 1493 1489 1486 1479 1471 1470 1478 1479 1480 1472 1474 1474 1473 1472 1471 1466 1464 1464 1463 1461 1460 1458 1457 1455 1453 1451 1450 1449 1448 1447 1446 1446 1445 1446 1446 1447 1448 1448 1449 1450 1451 1453 1454
1492 1491 1488 1483 1477 1469 1476 1478 1479 1475 1468 1472 1471 1471 1471 1470 1468 1466 1463 1461 1459 1458 1456 1454 1452 1450 1449 1447 1446 1445 1444 1444 1444 1444 1444 1444 1444 1445 1445 1446 1447 1448 1449 1450
1486 1484 1485 1482 1476 1471 1476 1477 1475 1472 1471 1470 1469 1469 1468 1466 1464 1463 1461 1459 1457 1455 1453 1451 1449 1447 1446 1445 1444 1442 1442 1441 1441 1441 1441 1441 1441 1442 1442 1443 1444 1445 1445 1446
1485 1482 1478 1478 1474 1473 1473 1472 1471 1470 1469 1468 1467 1466 1465 1463 1461 1459 1458 1456 1454 1452 1450 1449 1447 1445 1443 1442 1441 1440 1439 1439 1438 1438 1438 1438 1438 1439 1439 1440 1441 1441 1442 1443
1482 1483 1481 1477 1471 1471 1470 1469 1468 1467 1466 1465 1464 1462 1461 1459 1457 1456 1454 1452 1451 1449 1448 1446 1444 1443 1441 1440 1439 1438 1437 1436 1436 1436 1436 1436 1436 1436 1436 1437 1438 1438 1438 1439
1478 1480 1478 1474 1470 1468 1466 1465 1465 1464 1463 1461 1460 1459 1457 1456 1454 1452 1450 1449 1447 1446 1445 1444 1442 1440 1439 1437 1436 1435 1435 1434 1434 1433 1433 1433 1433 1433 1434 1434 1434 1435 1435 1436
1475 1475 1472 1466 1466 1466 1463 1462 1462 1461 1459 1458 1456 1455 1453 1452 1451 1449 1447 1446 1445 1443 1442 1441 1439 1438 1437 1435 1434 1433 1433 1432 1431 1431 1431 1431 1431 1431 1431 1431 1432 1432 1433 1433